Regional Weather Roundup
Issued by NWS Cleveland, OH

Home | Current Version | Previous Version | Text Only | Print | Product List | Glossary Off
Versions: 1 2 3 4 5 6 7 8 9 10 11 12 13 14 15 16 17 18 19 20 21 22 23 24 25 26 27 28 29 30 31 32 33 34 35 36 37 38 39 40 41 42 43 44 45 46 47 48 49 50

000
ASUS41 KCLE 211200
RWRCLE
OHIO REGIONAL WEATHER ROUNDUP
NATIONAL WEATHER SERVICE WILMINGTON, OH
800 AM EDT THU AUG 21 2014

NOTE: "FAIR" INDICATES FEW OR NO CLOUDS BELOW 12,000 FEET WITH NO
SIGNIFICANT WEATHER AND/OR OBSTRUCTIONS TO VISIBILITY.

OHZ001>008-015>018-024>027-034-035-043-044-211300-
   NORTHWEST OHIO

CITY           SKY/WX    TMP DP  RH WIND       PRES   REMARKS
DEFIANCE       SUNNY     69  66  90 CALM      29.99R
FINDLAY        MOSUNNY   70  66  87 S5        30.00R
TOLEDO EXPRESS MOSUNNY   67  66  97 CALM      29.98R FOG
TOLEDO METCALF MOSUNNY   69  66  90 SW6       29.98S
LIMA           CLOUDY    71  67  87 S8        30.01R
$$

OHZ009>014-019>023-028>033-038-089-211300-
   NORTHEAST OHIO

CITY           SKY/WX    TMP DP  RH WIND       PRES   REMARKS
CLE-HOPKINS    MOSUNNY   68  65  90 S3        30.02R
CLE-LAKEFRONT  MOSUNNY   71  65  81 S6        29.99R
CUY CO. ARPT   PTSUNNY   72  68  88 CALM      30.01R
LORAIN-ELYRIA  SUNNY     71  66  84 SW6       30.01R
ASHTABULA      LGT RAIN  66  65  96 S3        30.02R FOG
AKRON-CANTON   MOSUNNY   68  64  87 SW3       30.03R FOG
WOOSTER        NOT AVBL
MANSFIELD      MOSUNNY   70  67  90 SW7       30.04R
YOUNGSTOWN     PTSUNNY   68  66  93 CALM      30.02S FOG
$$

OHZ042-051>053-060>062-070>072-077>081-211300-
  SOUTHWEST OHIO

CITY           SKY/WX    TMP DP  RH WIND       PRES   REMARKS
CINC-COVINGTON MOSUNNY   69  67  93 SE3       30.05R
CINC-LUNKEN    MOSUNNY   69  68  96 NE5       30.06R
HAMILTON       CLOUDY    71  70  96 CALM      30.07S FOG
DAYTON         NOT AVBL
WRIGHT-PAT AFB NOT AVBL
DAYTON GENERAL CLOUDY    70  68  93 SW5       30.05F
WILMINGTON     TSTM      69  67  93 SW8       30.08S FOG
$$

OHZ036-037-039>041-045>050-054>059-063>069-073>076-082>088-211300-
  CENTRAL AND SOUTHEAST OHIO

CITY           SKY/WX    TMP DP  RH WIND       PRES   REMARKS
COLUMBUS       LGT RAIN  71  66  84 S5        30.04R
OSU AIRPORT    CLOUDY    71  67  87 SW8       30.05R
BOLTON FIELD   PTSUNNY   68  68 100 SW3       30.06R FOG
RICKENBACK AFB NOT AVBL
NEWARK         CLOUDY    69  66  90 SW3       30.04R FOG
MARION         PTSUNNY   69  66  90 S5        30.03R
LANCASTER      CLOUDY    70  67  90 CALM      30.06R
ZANESVILLE     PTSUNNY   68  65  90 S6        30.05R FOG
NEW PHILLY     MOSUNNY   66  66 100 SE5       30.04S FOG
$$


USA.gov is the U.S. government's official web portal to all federal, state and local government web resources and services.